Location: Copeville
(33.0796°N, 96.4155°W)
Time: 06:43:15
(UTC+00:00)

SJ 16-02 - Pass Details

Date: 08 December 2021
Orbit: 605 x 616 km, 75.0° (Epoch: 17 January)

Event Time Altitude Azimuth Distance (km) Brightness Sun altitude
Rises 11:59:23 0° 213° (SSW) 2,849 4.6 -15.8°
Reaches altitude 10° 12:01:44 10° 221° (SW) 1,948 3.7 -15.4°
Maximum altitude 12:05:46 37° 289° (WNW) 944 1.8 -14.6°
Drops below altitude 10° 12:09:50 10° 358° (N) 1,956 3.7 -13.7°
Sets 12:12:12 0° 6° (N) 2,863 4.6 -13.3°
